Alexandria, LA

11:50 PM CDT on March 22, 2017 (GMT -0500)
Alexandria International

Weather History for KAEX - December, 2002

Change the Weather History Date:

Sunday, December 29, 2002

  Actual Average Record
Temperature  
Mean Temperature 54 °F 49 °F  
Max Temperature 72 °F 59 °F 78 °F (1984)
Min Temperature 37 °F 39 °F 10 °F (1894)
Degree Days  
Heating Degree Days 10 16  
Month to date heating degree days 433  
Since 1 July heating degree days 758  
Growing Degree Days 4 (Base 50)    
Moisture  
Dew Point 51 °F    
Average Humidity 89    
Maximum Humidity 100    
Minimum Humidity 64    
Precipitation  
Precipitation 0.00 in 0.12 in 3.05 in (1927)
Month to date precipitation 5.86  
Year to date precipitation 55.66  
Sea Level Pressure  
Sea Level Pressure 30.17 in    
Wind  
Wind Speed 5 mph (SSE)    
Max Wind Speed 14 mph    
Max Gust Speed 21 mph    
Visibility 7 miles    
Events Fog    
T = Trace of Precipitation, MM = Missing Value Source: NWS Daily Summary

Daily Weather History Graph

Daily Weather History Graph

Search for Another Location

Airport or City:

Trip Planner

Search our weather history database for the weather conditions in past years. The results will help you decide how hot, cold, wet, or windy it might be!

Date:

Astronomy

Dec. 29, 2002 Rise Set
Actual Time 7:08 AM CST 5:16 PM CST
Civil Twilight 6:41 AM CST 5:43 PM CST
Nautical Twilight 6:11 AM CST 6:13 PM CST
Astronomical Twilight 5:41 AM CST 6:42 PM CST
Moon 2:36 AM CST (12/29) 1:53 PM CST (12/29)
Length of Visible Light 11h 01m
Length of Day
10h 07m
Waning Crescent, 21% of the Moon is Illuminated
Dec 29
Waning Crescent
Jan 2
New
Jan 10
First Quarter
Jan 18
Full
Jan 25
Last Quarter

Hourly Weather History & Observations

Time (CST) Temp. Windchill Dew Point Humidity Pressure Visibility Wind Dir Wind Speed Gust Speed Precip Events Conditions
12:53 AM 41.0 °F 38.0 °F 37.9 °F 89% 30.26 in 10.0 mi SE 4.6 mph - N/A   Clear
1:53 AM 42.1 °F 38.4 °F 39.0 °F 89% 30.26 in 10.0 mi SE 5.8 mph - N/A   Clear
2:53 AM 39.0 °F - 37.9 °F 96% 30.25 in 10.0 mi Calm Calm - N/A   Clear
3:53 AM 37.9 °F - 37.0 °F 97% 30.24 in 10.0 mi Calm Calm - N/A   Partly Cloudy
4:42 AM 39.2 °F 34.2 °F 39.2 °F 100% 30.21 in 9.0 mi ESE 6.9 mph - N/A   Scattered Clouds
4:53 AM 41.0 °F 38.0 °F 39.9 °F 96% 30.22 in 9.0 mi East 4.6 mph - N/A   Mostly Cloudy
5:09 AM 42.8 °F 40.1 °F 42.8 °F 100% 30.21 in 9.0 mi ESE 4.6 mph - N/A   Overcast
5:53 AM 44.1 °F 42.5 °F 43.0 °F 96% 30.23 in 8.0 mi ESE 3.5 mph - N/A   Overcast
6:43 AM 46.4 °F - 44.6 °F 93% 30.23 in 8.0 mi Calm Calm - N/A   Overcast
6:53 AM 46.0 °F - 44.1 °F 93% 30.24 in 8.0 mi Calm Calm - N/A   Overcast
7:26 AM 46.4 °F - 44.6 °F 93% 30.22 in 5.0 mi Calm Calm - N/A   Overcast
7:53 AM 46.9 °F - 46.9 °F 100% 30.24 in 3.0 mi SE 4.6 mph - N/A   Overcast
8:00 AM 46.4 °F 44.3 °F 46.4 °F 100% 30.23 in 2.0 mi SE 4.6 mph - N/A   Overcast
8:14 AM 46.4 °F 43.5 °F 46.4 °F 100% 30.22 in 1.2 mi SE 5.8 mph - N/A   Overcast
8:21 AM 46.4 °F 43.5 °F 46.4 °F 100% 30.22 in 0.5 mi SE 5.8 mph - N/A Fog Fog
8:29 AM 48.2 °F - 48.2 °F 100% 30.22 in 0.2 mi ESE 5.8 mph - N/A Fog Fog
8:53 AM 48.0 °F - 48.0 °F 100% 30.24 in 0.2 mi SE 5.8 mph - N/A Fog Fog
9:53 AM 52.0 °F - 52.0 °F 100% 30.25 in 0.2 mi SSE 6.9 mph - N/A Fog Fog
10:41 AM 53.6 °F - 53.6 °F 100% 30.22 in 0.8 mi SE 4.6 mph - N/A   Overcast
10:53 AM 54.0 °F - 54.0 °F 100% 30.22 in 1.2 mi SE 6.9 mph - N/A   Overcast
11:05 AM 55.4 °F - 55.4 °F 100% 30.20 in 2.5 mi SE 4.6 mph - N/A   Overcast
11:08 AM 55.4 °F - 55.4 °F 100% 30.20 in 3.0 mi SE 6.9 mph - N/A   Overcast
11:31 AM 57.2 °F - 57.2 °F 100% 30.18 in 6.0 mi SSE 5.8 mph - N/A   Overcast
11:53 AM 62.1 °F - 57.0 °F 84% 30.18 in 8.0 mi Calm Calm - N/A   Overcast
12:15 PM 64.4 °F - 59.0 °F 83% 30.15 in 10.0 mi Calm Calm - N/A   Overcast
12:53 PM 66.9 °F - 60.1 °F 79% 30.13 in 10.0 mi Calm Calm - N/A   Overcast
1:20 PM 71.6 °F - 60.8 °F 69% 30.10 in 10.0 mi SSW 11.5 mph - N/A   Scattered Clouds
1:53 PM 71.1 °F - 59.0 °F 66% 30.08 in 10.0 mi South 12.7 mph - N/A   Mostly Cloudy
2:53 PM 72.0 °F - 59.0 °F 64% 30.07 in 10.0 mi South 9.2 mph - N/A   Mostly Cloudy
3:53 PM 72.0 °F - 60.1 °F 66% 30.07 in 10.0 mi South 9.2 mph - N/A   Mostly Cloudy
4:53 PM 68.0 °F - 59.0 °F 73% 30.08 in 10.0 mi South 9.2 mph - N/A   Scattered Clouds
5:53 PM 66.9 °F - 57.9 °F 73% 30.07 in 10.0 mi South 11.5 mph - N/A   Partly Cloudy
6:53 PM 64.0 °F - 57.9 °F 80% 30.08 in 10.0 mi SSE 6.9 mph - N/A   Partly Cloudy
7:38 PM 64.4 °F - 57.2 °F 77% 30.07 in 10.0 mi SSE 8.1 mph - N/A   Mostly Cloudy
7:53 PM 63.0 °F - 57.9 °F 84% 30.08 in 10.0 mi SSE 9.2 mph - N/A   Scattered Clouds
8:53 PM 63.0 °F - 57.0 °F 81% 30.07 in 10.0 mi SSE 10.4 mph - N/A   Scattered Clouds
9:53 PM 63.0 °F - 57.0 °F 81% 30.07 in 10.0 mi SSE 13.8 mph - N/A   Overcast
10:53 PM 62.1 °F - 55.9 °F 80% 30.06 in 10.0 mi SSE 12.7 mph 20.7 mph N/A   Mostly Cloudy
11:53 PM 61.0 °F - 54.0 °F 78% 30.04 in 10.0 mi South 12.7 mph 18.4 mph N/A   Overcast